Location: Helstorf
(52.5868°N, 9.5862°E)
Time: 15:57:04
(UTC+00:00)

Cosmos 1805 - Pass Details

Date: 15 May 2026
Orbit: 410 x 414 km, 82.5° (Epoch: 9 June)

Event Time Altitude Azimuth Distance (km) Brightness Sun altitude
Rises 20:29:13 0° 351° (N) 2,383 7.7 -9.6°
Reaches altitude 10° 20:31:17 10° 355° (N) 1,512 6.5 -9.8°
Maximum altitude 20:34:32 60° 77° (ENE) 485 2.9 -10.1°
Enters shadow 20:37:04 15° 156° (SSE) 1,210 4.5 -10.3°
